GFSNIL_con_mucape_159.txt.gz
CAPE
2545 1741 1819 2018 2242 1323 974 1033 3254 2608 2002 1981 2536 2651 2203 1705 1388 2603 2073 2506 3003 1932
2700 2288 1739 2671 2248 1479 2479 1610 1927 1600 1959 1705 2854 1706 2160 1923 1845 1854 2425 2006 2286 1954
1636 1856 2310 2834 2379 2647 2802 2561 2057 2201 1837 1961 2175 1950 2123 2024 2803 2456 1818 1546 2977 2847
1811 1568 1842 1920 1939 2202 2134 2010 1831 2146 2068 2475 2708 2388 2972 2491 2443 1102 2466 1954 1813 1901
2185 1992 1500 1730 1827 2638 3313 2174 2307 1908 1933 1819 1960 1885 1910 1758 1203 1608 1600 1356 2807 1712
2165 1768 1601 2013 1985 2662 3108 2867 1711 2578 2900 2708 1862 2246 2195 2328 2039 1549 1645 1727 2267 2329
2027 2208 1735 1959 2504 2220 3183 2934 2768 2333 2679 2508 1993 2198 1778 2146 2353 2597 2125 1887 2019 1722
2462 2647 2791 2536 2988 2669 2956 2896 2803 2672 2761 1761 1539 1197 2535 2122 2066 2034 1832 1710 2195 1642
2126 2269 2086 2483 2757 3125 3104 3055 3009 2631 2725 2507 1558 725 455 724 1666 2226 2541 1817 1920 2845
2659 2532 2481 2517 2420 2849 2866 2849 2927 2875 2749 2854 2915 1148 766 524 785 1255 2470 2122 2551 1632
1371 1834 1875 1830 1961 2573 2690 2470 3339 2975 2875 2899 2341 1212 1090 925 1465 1567 2084 2378 2556 2585
626 926 928 1104 1399 2085 2016 2024 2186 2350 2200 2168 2367 988 929 1031 2135 1526 2366 2439 2621 2247
220 588 749 912 1074 1099 1016 727 662 630 677 724 870 916 890 762 1379 1297 1016 2509 2400 1002
195 398 258 428 675 520 271 107 129 281 298 290 153 100 82 76 48 629 1074 1441 2253 1343

GFSNIL_con_mucape_162.txt.gz
CAPE
2922 2005 2249 3372 2359 1599 1914 2015 2548 2970 3412 3193 2913 2998 3168 2931 2667 2423 3126 3316 3587 3514
2346 2200 2180 2873 2815 2138 3403 2267 2804 3157 3143 3460 2775 3279 2527 2435 3198 3088 2996 2916 3686 3349
2250 2301 2413 2510 2976 2510 2830 2478 1335 1715 2140 3061 3470 2262 2270 2659 2246 2597 2578 2446 1519 1867
2048 2089 2237 2139 2408 2652 3229 2121 964 1827 1142 2026 2314 2820 2407 2406 2837 2014 1176 1359 2127 991
1972 2104 2014 1754 2212 2580 2821 1496 432 7 1839 2353 2178 2501 960 2285 1864 1791 960 561 2153 1957
2195 2136 1792 2053 2210 2153 2964 2687 1601 1403 2800 3118 2918 2786 2487 2804 2278 2297 1740 1568 1436 2551
2000 1857 1948 2070 1833 2138 2667 2490 2206 2743 2337 2450 2490 2174 2145 2449 2054 2620 2189 2565 2435 2356
1623 1289 1603 2071 2180 1858 2190 2069 2347 2221 2536 2390 2109 1463 2516 2285 1962 1749 1954 1967 1979 2460
592 452 338 318 1954 2193 2440 2014 2173 2258 2253 1954 1524 840 659 1805 2095 2169 2026 2426 2554 2643
712 22 100 218 1701 2209 1842 2199 2540 2490 2235 2153 1977 1246 699 585 1499 1923 1934 1890 2158 1858
586 841 1503 1895 1908 2797 2604 1575 1615 1707 2132 2164 1932 901 828 742 1192 1628 1644 1947 2184 2195
217 54 90 694 1189 1936 2309 2340 2439 2108 1610 1535 1584 800 637 676 1254 1718 1650 1725 1462 1609
145 296 237 282 711 1319 1341 1034 713 536 692 729 643 674 579 397 554 1371 1549 1332 1282 842
351 195 236 214 291 594 641 363 384 259 368 245 212 210 331 308 226 359 740 1293 1384 737

GFSNIL_con_mucape_165.txt.gz
CAPE
713 1242 792 1211 953 1346 1467 1594 1322 2101 1840 2143 2120 1734 1874 1252 1205 1195 1365 1767 1743 2035
875 924 1075 821 1665 805 1428 1641 1487 1608 2130 2017 1912 1256 1214 1584 1511 1598 1288 1229 1829 2165
1325 1310 1003 1583 1339 1456 1383 1678 2043 1819 1744 1852 1883 1814 1739 1546 1220 1085 1239 1403 1196 1058
1461 1365 1171 1253 1208 1386 1341 1063 1068 1088 1214 1230 1626 1632 1010 1172 1262 1241 694 795 602 921
1038 1236 1095 1008 1147 1046 1350 959 798 936 898 892 912 1428 1370 1154 1140 944 1059 516 68 732
1124 968 1008 897 846 953 1284 985 855 513 674 708 32 741 1194 1041 970 1109 1141 787 714 978
1241 1088 1106 1126 981 783 1013 1402 860 382 187 1017 922 1193 1261 1417 1452 1271 1207 1168 1026 1167
388 382 984 916 1027 1099 1317 1235 1140 941 1227 1178 1318 1277 1133 1122 1243 1230 1151 1091 1014 1262
335 80 381 421 390 732 793 1184 1244 1086 897 1018 1092 1111 1072 986 1188 1240 1193 970 808 1124
339 293 305 207 198 387 381 794 989 1115 1181 1204 1236 1156 955 811 647 875 780 873 1033 1098
401 315 265 183 64 186 130 586 824 953 1009 1112 1117 853 835 776 592 585 854 887 855 915
364 246 223 95 147 5 130 605 505 621 920 835 750 660 841 730 662 607 640 609 579 740
118 29 77 60 1 36 56 402 359 297 339 424 417 332 330 332 375 434 731 593 540 531
97 99 73 24 14 155 291 168 167 141 186 210 211 186 179 157 187 277 384 517 451 463

GFSNIL_con_mucape_168.txt.gz
CAPE
744 954 547 777 1118 1193 1130 1219 1180 1452 1620 1595 1660 1812 1526 1069 1282 1134 1219 1472 1578 1105
530 632 978 812 1164 1116 1174 1152 1298 1284 1706 1589 1821 1841 1505 1414 1115 1127 995 883 974 1308
809 538 580 779 622 1130 1004 1326 1751 1435 1534 1775 1689 1543 1351 1245 1135 1009 984 1015 1332 986
870 774 609 597 968 915 1183 1045 1503 1704 1506 1553 1590 1586 1280 1179 1279 1025 887 900 1091 866
965 1048 803 768 843 1049 1123 1092 1290 1590 1526 1292 1437 1406 1264 1177 1155 1095 807 747 564 535
1147 1089 1129 1039 784 806 915 879 807 997 1052 990 915 1158 1178 1189 911 903 761 852 633 518
1108 935 968 982 913 758 691 855 813 775 775 757 737 716 340 1184 1090 847 799 978 942 731
840 791 510 724 693 606 513 781 673 754 725 547 519 704 763 1010 1165 1206 1040 957 986 1110
803 627 284 468 578 429 351 419 437 747 598 492 332 1076 1204 1111 938 942 908 864 758 744
756 556 390 302 452 327 207 239 269 324 445 668 738 1057 968 990 1024 910 819 819 778 818
539 427 303 184 305 331 243 73 74 125 227 493 586 761 1096 1082 1007 959 869 730 774 699
543 469 346 281 257 207 218 36 38 97 178 290 442 565 846 984 947 824 701 628 683 848
91 137 83 120 375 95 17 97 136 170 90 246 310 330 408 500 631 603 600 659 641 623
32 37 12 0 4 61 83 76 35 142 147 150 181 201 169 246 185 148 267 394 418 411